Weather in Cavan

Ireland     53°59′20″N   7°21′45″W
В апреле 2022 года жителям России запретили посещать сайт meteo.paraplan.net по решению Генеральной прокуратуры. Аудитория сайта уменьшилась в 10 раз. Владельцы сайта не видят смысла в поддержке погодного сервера в таких условиях. Сайт будет закрыт в октябре.
temp.,
°C
wind,
m/s
gust,
m/s
humid.,
%
clouds,
%
prec.,
mm/h
press.,
hPa
HPBL,
m
6 october, thu
thu601:00+8sw616855 0.0 1017830
04:00+12wsw81683100 0.0 10161205
07:00+11wsw7139050 0.1 1018911
10:00+13sw71488100 0.1 10191227
13:00+14sw7128289 0.3 10191064
16:00+13sw8159198 0.6 10171107
19:00+12sw8158893 0.8 10161088
22:00+12sw81687100 0.1 10151155
7 october, fri
fri701:00+12sw81694100 1.3 10131193
04:00+12sw81494100 1.5 10111109
07:00+10wsw6139110 3.2 1010972
10:00+10wsw612905 0.1 10121072
13:00+12w7137947 0.5 10121449
16:00+11w713835 0.9 10131392
19:00+9w6128749 1.1 1015751
22:00+8wsw410927 0.0 1017378
8 october, sat
sat801:00+6wsw499612 0.0 1019227
04:00+6sw3995100 0.0 1020195
07:00+6sw399750 0.0 1021241
10:00+9sw498840 0.0 1021320
13:00+13sw576761 0.0 10211157
16:00+13sw4773100 0.1 10191066
19:00+9sse2384100 0.1 101858
22:00+9s41285100 0.0 1016469
9 october, sun
sun901:00+9sse61489100 0.0 1013646
04:00+10sse71485100 0.0 1008905
07:00+10sse81692100 0.7 1004862
10:00+12s92095100 4.8 9991236
13:00+13s91796100 11.3 996997
16:00+11nw91592100 1.6 1001878
19:00+8nw613780 1.7 1007707
22:00+6wsw3687100 0.0 1011130
10 october, mon
mon1001:00+9w41175100 0.0 1014693
04:00+9w41079100 0.1 1016507
07:00+7wsw3790100 0.1 1018135
10:00+10wsw368464 0.1 1021213
13:00+12wsw3570100 0.1 1022957
16:00+12sw3573100 0.0 1022988
19:00+9ssw359053 0.1 102384
22:00+7s379455 0.0 1023144